Location: Newark
(35.5300°N, 14.3000°E)
Time: 02:10:19
(UTC+00:00)

Courier 1B - All Passes

Search period start: 12 November 2019 00:00
Search period end: 22 November 2019 00:00
Orbit: 963 x 1209 km, 28.3° (Epoch: 11 November)

Date Brightness Start Highest point End Pass type
(mag) Time Alt. Az. Time Alt. Az. Time Alt. Az.
12 Nov - 06:49:47 10° SSW 06:54:59 25° SSE 07:00:08 10° ESE daylight
12 Nov - 08:42:19 10° WSW 08:48:22 43° S 08:54:31 10° ESE daylight
12 Nov - 10:35:52 10° WSW 10:41:56 42° S 10:48:15 10° ESE daylight
12 Nov - 12:30:06 10° WSW 12:35:25 25° SSW 12:40:58 10° SSE daylight
13 Nov - 05:56:45 10° SSW 06:01:26 21° SSE 06:06:02 10° ESE daylight
13 Nov - 07:48:49 10° SW 07:54:46 39° S 08:00:44 10° ESE daylight
13 Nov - 09:42:12 10° WSW 09:48:18 44° S 09:54:33 10° ESE daylight
13 Nov - 11:36:13 10° WSW 11:41:48 30° SSW 11:47:37 10° SE daylight
13 Nov - 13:32:30 10° SW 13:35:08 12° SSW 13:37:49 10° S daylight
14 Nov - 05:04:00 10° S 05:07:53 16° SSE 05:11:41 10° ESE visible
14 Nov - 06:55:21 10° SW 07:01:10 34° SSE 07:06:56 10° ESE daylight
14 Nov - 08:48:34 10° WSW 08:54:41 45° S 09:00:52 10° ESE daylight
14 Nov - 10:42:25 10° WSW 10:48:12 35° SSW 10:54:10 10° SE daylight
14 Nov - 12:37:37 10° WSW 12:41:33 16° SSW 12:45:34 10° S daylight
15 Nov - 04:11:53 10° S 04:14:20 12° SSE 04:16:44 10° SE visible
15 Nov - 06:01:57 10° SW 06:07:36 30° SSE 06:13:06 10° ESE daylight
15 Nov - 07:54:56 10° WSW 08:01:04 44° S 08:07:10 10° ESE daylight
15 Nov - 09:48:40 10° WSW 09:54:36 39° S 10:00:38 10° SE daylight
15 Nov - 11:43:18 10° WSW 11:47:58 21° SSW 11:52:46 10° SSE daylight
16 Nov - 05:08:40 10° SSW 05:14:00 25° SSE 05:19:11 10° ESE visible
16 Nov - 07:01:18 10° WSW 07:07:27 42° S 07:13:29 10° ESE daylight
16 Nov - 08:54:56 10° WSW 09:01:00 42° S 09:07:04 10° ESE daylight
16 Nov - 10:49:15 10° WSW 10:54:24 25° SSW 10:59:40 10° SSE daylight
17 Nov - 04:15:33 10° SSW 04:20:25 21° SSE 04:25:09 10° ESE visible
17 Nov - 06:07:42 10° SW 06:13:50 39° S 06:19:46 10° ESE daylight
17 Nov - 08:01:13 10° WSW 08:07:23 45° S 08:13:29 10° ESE daylight
17 Nov - 09:55:19 10° WSW 10:00:51 30° SSW 10:06:25 10° SE daylight
17 Nov - 11:51:37 10° SW 11:54:04 12° SSW 11:56:33 10° S daylight
18 Nov - 03:22:44 10° S 03:26:50 16° SSE 03:30:49 10° ESE visible
18 Nov - 05:14:08 10° SW 05:20:13 34° SSE 05:26:03 10° ESE visible
18 Nov - 07:07:29 10° WSW 07:13:45 45° S 07:19:53 10° ESE daylight
18 Nov - 09:01:28 10° WSW 09:07:16 35° SSW 09:13:03 10° SE daylight
18 Nov - 10:56:42 10° WSW 11:00:32 16° SSW 11:04:25 10° SSE daylight
19 Nov - 02:30:29 10° S 02:33:13 12° SSE 02:35:54 10° SE visible
19 Nov - 04:20:39 10° SW 04:26:35 30° SSE 04:32:15 10° ESE visible
19 Nov - 06:13:45 10° WSW 06:20:07 45° S 06:26:16 10° ESE daylight
19 Nov - 08:07:38 10° WSW 08:13:41 39° S 08:19:38 10° ESE daylight
19 Nov - 10:02:20 10° WSW 10:07:01 21° SSW 10:11:41 10° SSE daylight
20 Nov - 03:27:17 10° SSW 03:32:57 25° SSE 03:38:21 10° ESE visible
20 Nov - 05:20:01 10° WSW 05:26:28 42° S 05:32:38 10° ESE daylight
20 Nov - 07:13:49 10° WSW 07:20:04 43° S 07:26:08 10° ESE daylight
20 Nov - 09:08:13 10° WSW 09:13:28 26° SSW 09:18:41 10° SE daylight
21 Nov - 02:34:06 10° SSW 02:39:18 21° SSE 02:44:18 10° ESE visible
21 Nov - 04:26:19 10° SW 04:32:48 39° S 04:38:56 10° ESE visible
21 Nov - 06:19:58 10° WSW 06:26:26 46° S 06:32:37 10° ESE daylight
21 Nov - 08:14:13 10° WSW 08:19:55 31° SSW 08:25:30 10° SE daylight
21 Nov - 10:10:27 10° SW 10:13:05 13° SSW 10:15:42 10° S daylight
